Location: Pilipovskiye Korichintsy
(49.1833°N, 27.4667°E)
Time: 20:21:50
(UTC+00:00)

X-37B - Visible Passes

Search period start: 21 September 2020 00:00
Search period end: 01 October 2020 00:00
Orbit: 386 x 387 km, 45.0° (Epoch: 18 September)

Date Brightness Start Highest point End Pass type
(mag) Time Alt. Az. Time Alt. Az. Time Alt. Az.
21 Sep 1.6 02:09:45 33° S 02:09:45 33° S 02:12:26 10° ESE visible
22 Sep 2.2 02:46:19 19° SW 02:47:13 21° SSW 02:49:41 10° SSE visible
23 Sep 3.0 01:50:43 16° SE 01:50:43 16° SE 01:51:35 10° SE visible
24 Sep 2.9 02:27:32 13° S 02:27:32 13° S 02:28:20 10° S visible
